Weather History for Mt. Pocono, PA

Change the Weather History Date:

Saturday, December 22, 2012

  Actual Average Record
Temperature  
Mean Temperature 29 °F 26 °F  
Max Temperature 30 °F 32 °F 60 °F (2013)
Min Temperature 27 °F 19 °F -12 °F (1980)
Degree Days  
Heating Degree Days 36 39  
Month to date heating degree days 621 794  
Since 1 July heating degree days 2157 2373  
Cooling Degree Days 0 0  
Month to date cooling degree days 0 0  
Year to date cooling degree days 453 314  
Moisture  
Dew Point 21 °F    
Average Humidity 75    
Maximum Humidity 92    
Minimum Humidity 58    
Precipitation  
Precipitation 0.10 in 0.13 in 1.30 in (1918)
Month to date precipitation 4.49 2.89  
Year to date precipitation 47.70 47.80  
Sea Level Pressure  
Sea Level Pressure 29.47 in    
Wind  
Wind Speed 19 mph (WNW)    
Max Wind Speed 31 mph    
Max Gust Speed 45 mph    
Visibility 4 miles    
Events Fog , Snow    
T = Trace of Precipitation, MM = Missing Value Source: NWS Daily Summary

Daily Weather History Graph

Daily Weather History Graph

Search for Another Location

Airport:

Trip Planner

Search our weather history database for the weather conditions in past years. The results will help you decide how hot, cold, wet, or windy it might be!

Date:

Astronomy

Dec. 22, 2012 Rise Set
Actual Time 7:24 AM EST 4:36 PM EST
Civil Twilight 6:52 AM EST 5:07 PM EST
Nautical Twilight 6:18 AM EST 5:42 PM EST
Astronomical Twilight 5:44 AM EST 6:16 PM EST
Moon 12:54 PM EST (12/22) 2:05 AM EST (12/22)
Length of Visible Light 10h 15m
Length of Day
9h 12m
Waxing Gibbous, 73% of the Moon is Illuminated
Dec 22
Waxing Gibbous
Dec 28
Full
Jan 4
Last Quarter
Jan 11
New
Jan 18
First Quarter

Hourly Weather History & Observations

Time (EST) Temp. Windchill Dew Point Humidity Pressure Visibility Wind Dir Wind Speed Gust Speed Precip Events Conditions
12:00 AM 30.2 °F 18.1 °F 26.6 °F 86% 29.24 in 1.2 mi West 18.4 mph 27.6 mph 0.00 in Snow Light Snow
12:22 AM 30.2 °F 18.9 °F 26.6 °F 86% 29.24 in 1.2 mi West 16.1 mph 26.5 mph 0.00 in Snow Light Snow
12:53 AM 30.0 °F 18.7 °F 27.0 °F 88% 29.29 in 1.5 mi West 16.1 mph 26.5 mph 0.00 in Snow Light Snow
1:26 AM 30.2 °F 18.5 °F 26.6 °F 86% 29.25 in 2.5 mi West 17.3 mph 25.3 mph 0.00 in Snow Light Snow
1:36 AM 30.2 °F 17.4 °F 26.6 °F 86% 29.25 in 5.0 mi West 20.7 mph 32.2 mph 0.00 in Snow Light Snow
1:53 AM 30.0 °F 18.7 °F 26.1 °F 85% 29.31 in 10.0 mi West 16.1 mph 25.3 mph 0.00 in   Overcast
2:35 AM 30.2 °F 18.5 °F 26.6 °F 86% 29.28 in 1.8 mi WNW 17.3 mph 28.8 mph 0.00 in Snow Light Snow
2:40 AM 30.2 °F 18.5 °F 26.6 °F 86% 29.28 in 0.8 mi West 17.3 mph 28.8 mph 0.00 in Snow Light Snow
2:49 AM 28.4 °F 16.2 °F 26.6 °F 93% 29.28 in 0.5 mi West 17.3 mph 29.9 mph 0.00 in Fog , Snow Snow
2:53 AM 28.9 °F 16.9 °F 27.0 °F 92% 29.34 in 0.5 mi WNW 17.3 mph 25.3 mph 0.00 in Fog , Snow Snow
3:05 AM 28.4 °F 16.6 °F 26.6 °F 93% 29.29 in 1.0 mi WNW 16.1 mph 25.3 mph 0.00 in Snow Light Snow
3:24 AM 28.4 °F 15.8 °F 24.8 °F 86% 29.30 in 1.0 mi WNW 18.4 mph 35.7 mph 0.00 in Snow Light Snow
3:31 AM 28.4 °F 15.8 °F 24.8 °F 86% 29.30 in 0.8 mi WNW 18.4 mph 27.6 mph 0.00 in Snow Light Snow
3:48 AM 28.4 °F 17.0 °F 24.8 °F 86% 29.31 in 1.0 mi WNW 15.0 mph 25.3 mph 0.00 in Snow Light Snow
3:53 AM 28.0 °F 16.5 °F 25.0 °F 88% 29.37 in 0.8 mi WNW 15.0 mph 25.3 mph 0.00 in Snow Light Snow
4:02 AM 28.4 °F 17.0 °F 24.8 °F 86% 29.31 in 1.0 mi WNW 15.0 mph 24.2 mph 0.00 in Snow Light Snow
4:34 AM 28.4 °F 15.4 °F 24.8 °F 86% 29.32 in 0.8 mi WNW 19.6 mph 32.2 mph 0.00 in Snow Light Snow
4:41 AM 28.4 °F 15.8 °F 24.8 °F 86% 29.33 in 2.0 mi WNW 18.4 mph 29.9 mph 0.00 in Snow Light Snow
4:47 AM 28.4 °F 14.1 °F 23.0 °F 80% 29.33 in 1.8 mi WNW 24.2 mph 34.5 mph 0.00 in Snow Light Snow
4:53 AM 28.0 °F 15.7 °F 23.0 °F 81% 29.39 in 1.5 mi WNW 17.3 mph 34.5 mph 0.00 in Snow Light Snow
5:00 AM 28.4 °F 16.6 °F 23.0 °F 80% 29.34 in 2.0 mi WNW 16.1 mph 31.1 mph 0.00 in Snow Light Snow
5:04 AM 28.4 °F 16.6 °F 23.0 °F 80% 29.34 in 1.8 mi WNW 16.1 mph 31.1 mph 0.00 in Snow Light Snow
5:44 AM 26.6 °F 13.1 °F 23.0 °F 86% 29.36 in 2.0 mi WNW 19.6 mph 32.2 mph 0.00 in Snow Light Snow
5:53 AM 27.0 °F 13.2 °F 23.0 °F 85% 29.42 in 1.8 mi WNW 20.7 mph 28.8 mph 0.00 in Snow Light Snow
6:10 AM 26.6 °F 13.1 °F 21.2 °F 80% 29.37 in 3.0 mi WNW 19.6 mph 33.4 mph 0.00 in Snow Light Snow
6:28 AM 26.6 °F 13.8 °F 21.2 °F 80% 29.39 in 2.5 mi WNW 17.3 mph 26.5 mph 0.00 in Snow Light Snow
6:53 AM 27.0 °F 13.2 °F 19.9 °F 75% 29.46 in 3.0 mi WNW 20.7 mph 32.2 mph 0.00 in Snow Light Snow
7:11 AM 26.6 °F 13.1 °F 19.4 °F 74% 29.40 in 4.0 mi WNW 19.6 mph 29.9 mph 0.00 in Snow Light Snow
7:53 AM 28.0 °F 14.6 °F 18.0 °F 66% 29.48 in 2.5 mi WNW 20.7 mph 36.8 mph 0.00 in Snow Light Snow
8:05 AM 28.4 °F 15.1 °F 17.6 °F 64% 29.42 in 1.5 mi WNW 20.7 mph 43.7 mph 0.00 in Snow Light Snow
8:24 AM 28.4 °F 14.7 °F 17.6 °F 64% 29.43 in 3.0 mi NW 21.9 mph 41.4 mph 0.00 in Snow Light Snow
8:31 AM 28.4 °F 14.7 °F 17.6 °F 64% 29.44 in 2.0 mi WNW 21.9 mph 41.4 mph 0.00 in Snow Light Snow
8:53 AM 28.0 °F 14.9 °F 17.1 °F 63% 29.52 in 2.0 mi WNW 19.6 mph 44.9 mph 0.00 in Snow Light Snow
9:00 AM 28.4 °F 15.8 °F 17.6 °F 64% 29.47 in 9.0 mi NW 18.4 mph 29.9 mph 0.00 in   Overcast
9:25 AM 28.4 °F 13.8 °F 17.6 °F 64% 29.49 in 1.8 mi WNW 25.3 mph 39.1 mph 0.00 in Snow Light Snow
9:35 AM 28.4 °F 14.7 °F 17.6 °F 64% 29.49 in 3.0 mi NW 21.9 mph 33.4 mph 0.00 in Snow Light Snow
9:53 AM 27.0 °F 15.2 °F 18.0 °F 69% 29.57 in 3.0 mi WNW 15.0 mph 38.0 mph 0.00 in Snow Light Snow
10:07 AM 26.6 °F 13.4 °F 19.4 °F 74% 29.51 in 2.0 mi WNW 18.4 mph 27.6 mph 0.00 in Snow Light Snow
10:44 AM 26.6 °F 13.8 °F 19.4 °F 74% 29.52 in 3.0 mi WNW 17.3 mph 27.6 mph 0.00 in Snow Light Snow
10:53 AM 28.0 °F 16.5 °F 19.9 °F 72% 29.58 in 4.0 mi WNW 15.0 mph 24.2 mph 0.00 in Snow Light Snow
11:53 AM 28.0 °F 14.6 °F 19.9 °F 72% 29.59 in 3.0 mi WNW 20.7 mph 33.4 mph 0.00 in Snow Light Snow
12:35 PM 28.4 °F 16.6 °F 19.4 °F 69% 29.53 in 2.0 mi WNW 16.1 mph 29.9 mph 0.00 in Snow Light Snow
12:42 PM 28.4 °F 15.8 °F 21.2 °F 74% 29.53 in 2.0 mi WNW 18.4 mph 28.8 mph 0.00 in Snow Light Snow
12:53 PM 28.9 °F 16.1 °F 19.9 °F 69% 29.60 in 1.8 mi WNW 19.6 mph 36.8 mph 0.00 in Snow Light Snow
1:00 PM 28.4 °F 15.1 °F 19.4 °F 69% 29.54 in 2.0 mi WNW 20.7 mph 32.2 mph 0.00 in Snow Light Snow
1:27 PM 28.4 °F 17.0 °F 19.4 °F 69% 29.55 in 6.0 mi WNW 15.0 mph 29.9 mph 0.00 in Snow Light Snow
1:53 PM 28.9 °F 16.5 °F 19.0 °F 67% 29.62 in 7.0 mi WNW 18.4 mph 33.4 mph 0.00 in Snow Light Snow
2:29 PM 30.2 °F 16.2 °F 17.6 °F 60% 29.57 in 10.0 mi WNW 25.3 mph 35.7 mph 0.00 in   Overcast
2:53 PM 30.0 °F 17.2 °F 17.1 °F 59% 29.64 in 10.0 mi WNW 20.7 mph 35.7 mph 0.00 in   Overcast
3:53 PM 30.0 °F 16.0 °F 18.0 °F 61% 29.68 in 10.0 mi WNW 25.3 mph 38.0 mph 0.00 in   Overcast
4:53 PM 30.0 °F 17.9 °F 18.0 °F 61% 29.73 in 10.0 mi WNW 18.4 mph 29.9 mph 0.00 in   Overcast
5:53 PM 30.0 °F 16.9 °F 17.1 °F 59% 29.76 in 10.0 mi WNW 21.9 mph 28.8 mph N/A   Overcast
6:53 PM 30.0 °F 19.1 °F 18.0 °F 61% 29.78 in 10.0 mi WNW 15.0 mph 28.8 mph N/A   Overcast
7:53 PM 28.9 °F 16.9 °F 18.0 °F 64% 29.80 in 10.0 mi NW 17.3 mph 31.1 mph N/A   Overcast
8:53 PM 28.9 °F 16.5 °F 19.0 °F 67% 29.81 in 10.0 mi WNW 18.4 mph 28.8 mph N/A   Overcast
9:35 PM 28.4 °F 15.1 °F 19.4 °F 69% 29.75 in 10.0 mi NW 20.7 mph 32.2 mph N/A   Overcast
9:53 PM 28.9 °F 15.4 °F 19.0 °F 67% 29.82 in 10.0 mi WNW 21.9 mph 29.9 mph N/A   Overcast
10:53 PM 28.9 °F 15.4 °F 19.9 °F 69% 29.82 in 10.0 mi NW 21.9 mph 33.4 mph N/A   Overcast
11:53 PM 28.9 °F 15.4 °F 19.9 °F 69% 29.82 in 10.0 mi WNW 21.9 mph 39.1 mph N/A   Overcast